www.pogodaiklimat.ru

Погода и климат >> Архив погоды >> Индия >> Чхаттисгарх >> Пендра-роуд


ПОГОДА в Пендра-роуде

  • Прогноз погоды в Пендра-роуде
  • Монитор погоды в Пендра-роуде

АРХИВ ПОГОДЫ в Пендра-роуде

Время (UTC), дата Ветер
(напр.,м/с)
 
Видим.   Явления Облачность Т
(С)
Тd
(С)
f
(%)
Тe
(С)
Тes
(С)
Комфортность P
(гПа)
Po
(гПа)
Тmin
(С)
Tmax
(С)
R
(мм)
R24
(мм)
S
(см)
03 17.07 С 2 4000 м 5/4 600 м
[Sc Ac lent]
+28.2 +22.5 71 +37 +42 очень
душно
1002.6 935.1 +25.2 16
06 17.07 С 1 4000 м 4/3 600 м
[Sc Ac lent]
+32.4 +22.5 56 +42 +58 опасность
перегрева
1001.6 935.0
09 17.07 С 1 4000 м 4/3 750 м
[Sc diur, vesp Ci sp]
+34.0 +22.8 52 +44 +56 опасность
перегрева
999.6 933.4
12 17.07 С 2 4000 м 8/1 750 м
[Cu hum Ci fib]
+33.0 +23.2 56 +43 +44 опасность
перегрева
999.0 931.8 +34.5
15 17.07 штиль 0 4000 м 8/0
[Ci fib]
+29.6 +24.6 75 +42 +42 опасность
перегрева
1001.5 934.3
18 17.07 штиль 0 4000 м 4/1 600 м
[Sc Ci fib]
+26.8 +23.4 82 +36 +36 очень
душно
1003.3 935.3
21 17.07 штиль 0 4000 м 4/1 600 м
[Sc Ci fib]
+26.0 +23.2 85 +35 +35 очень
душно
1002.7 934.6
00 18.07 штиль 0 4000 м 8/4 600 м
[Sc As op]
+25.8 +23.2 86 +35 +35 очень
душно
1001.8 933.7
03 18.07 штиль 0 4000 м 5/0
[Ac trans Ci fib]
+28.0 +23.2 75 +38 +47 очень
душно
1001.8 934.2 +25.0
06 18.07 штиль 0 4000 м 1/1 750 м
[Cu med, cong]
+32.6 +24.0 61 +45 +71 опасность
перегрева
1001.1 934.6
09 18.07 С 2 4000 м 8/4 600 м
[Sc Ac lent]
+34.0 +23.4 54 +45 +49 опасность
перегрева
998.7 932.6
12 18.07 штиль 0 4000 м {гроза} 6/3 600 м
[Sc Ci fib]
+29.0 +22.4 68 +38 +39 очень
душно
999.5 932.2 +34.6
15 18.07 штиль 0 2000 м гроза, ливневой дождь 10/6 540 м
[Cb cap As op]
+24.8 +22.8 89 +33 +33 очень
душно
1003.2 934.9 8
18 18.07 штиль 0 4000 м {гроза, дождь} 8/4 600 м
[Sc As op]
+24.2 +23.0 93 +32 +32 очень
душно
1002.7 934.4 17
21 18.07 штиль 0 4000 м 6/4 600 м
[Sc As op]
+24.2 +22.5 90 +32 +32 очень
душно
1001.8 933.5 17
00 19.07 штиль 0 4000 м 4/0
[Ac lent]
+24.0 +23.1 95 +32 +32 очень
душно
1001.9 933.3 17
03 19.07 штиль 0 4000 м мгла ясно +26.4 +23.6 85 +36 +49 очень
душно
1002.3 934.4 +22.6 17
06 19.07 штиль 0 4000 м 4/4 600 м
[Sc]
+32.0 +25.7 69 +47 +64 опасность
перегрева
1001.1 934.4
09 19.07 штиль 0 4000 м 4/4 750 м
[Sc diur, vesp]
+33.8 +24.4 58 +46 +59 опасность
перегрева
998.1 932.0
12 19.07 штиль 0 4000 м в посл. час гроза 10/5 600 м
[Cb cap As trans]
+31.0 +25.5 73 +46 +46 опасность
перегрева
997.6 930.9 +34.9
15 19.07 штиль 0 4000 м 6/4 600 м
[Sc As op]
+27.6 +23.9 80 +38 +38 очень
душно
1000.8 933.2 3
18 19.07 штиль 0 4000 м 8/5 600 м
[Sc As op]
+27.2 +24.4 85 +38 +38 очень
душно
1001.9 934.3
21 19.07 штиль 0 4000 м 8/5 600 м
[Sc Ac trans]
+26.4 +24.4 89 +37 +37 очень
душно
1001.6 933.8
00 20.07 штиль 0 4000 м 8/5 540 м
[Sc As op]
+25.6 +23.9 90 +35 +35 очень
душно
1001.9 933.9
03 20.07 штиль 0 4000 м 8/4 600 м
[Sc Ac trans]
+27.0 +23.6 82 +37 +42 очень
душно
1002.8 934.9 +24.7
06 20.07 штиль 0 4000 м 5/5 600 м
[Sc diur, vesp]
+31.0 +24.6 69 +44 +58 опасность
перегрева
1002.0 935.0
09 20.07 Ю 2 4000 м 6/1 600 м
[Sc Ac lent Ci sp]
+32.0 +24.8 66 +45 +55 опасность
перегрева
1000.3 933.6
12 20.07 Ю 1 4000 м ясно +31.4 +23.9 64 +43 +44 опасность
перегрева
998.9 932.2 +32.9
15 20.07 штиль 0 4000 м ясно +28.4 +23.9 77 +39 +39 очень
душно
1000.9 933.5
18 20.07 штиль 0 4000 м ясно +27.0 +23.9 83 +37 +37 очень
душно
1002.7 934.8
21 20.07 штиль 0 4000 м ясно +26.4 +23.0 82 +35 +35 очень
душно
1001.9 934.0
00 21.07 штиль 0 4000 м 4/1 600 м
[Sc Ac lent]
+25.0 +23.6 92 +34 +34 очень
душно
1002.5 934.2
03 21.07 штиль 0 4000 м мгла 6/4 600 м
[Sc As op]
+27.2 +25.0 88 +39 +45 очень
душно
1003.2 935.4 +24.4
06 21.07 Ю 2 4000 м {дождь} 4/4 600 м
[Cu Sc As op]
+29.4 +22.9 68 +39 +53 опасность
солнечного
удара
1002.8 935.5 0.2
09 21.07 ЮВ 1 4000 м 4/4 600 м
[Sc diur, vesp]
+33.0 +24.4 61 +46 +56 опасность
перегрева
1000.1 933.7 0.2
12 21.07 ЮЗ 1 4000 м 1/1 750 м
[Sc diur, vesp]
+32.0 +23.6 61 +43 +45 опасность
перегрева
998.8 932.2 +33.2 0.2
15 21.07 штиль 0 4000 м 3/3 600 м
[Sc]
+29.2 +24.8 77 +42 +42 опасность
перегрева
1001.4 934.2 0.2
18 21.07 штиль 0 4000 м ясно +27.4 +23.4 79 +37 +37 очень
душно
1002.3 934.7 0.2
21 21.07 штиль 0 4000 м ясно +26.0 +22.9 83 +35 +35 очень
душно
1002.4 934.3 0.2
00 22.07 штиль 0 4000 м 3/0
[Ci fib]
+25.0 +22.7 87 +33 +33 очень
душно
1002.3 934.0 0.2
03 22.07 штиль 0 4000 м 3/3 750 м
[Sc diur, vesp]
+28.4 +24.5 79 +40 +49 очень
душно
1002.5 935.1 +24.4
06 22.07 ЮЗ 1 4000 м 5/5 600 м
[Cu Sc]
+31.4 +23.9 64 +43 +55 опасность
перегрева
1002.1 935.4
09 22.07 штиль 0 4000 м 4/4 600 м
[Cu Sc]
+32.4 +25.0 65 +46 +58 опасность
перегрева
999.2 932.9
12 22.07 штиль 0 4000 м 8/5 600 м
[Sc diur, vesp Ac trans]
+29.2 +27.6 91 +47 +48 опасность
перегрева
999.8 932.8 +34.2
15 22.07 Ю 2 4000 м 6/4 600 м
[Sc Ac lent]
+26.0 +23.2 85 +35 +35 очень
душно
1002.3 934.2
18 22.07 Ю 2 4000 м 6/4 600 м
[Sc Ac lent]
+26.0 +23.2 85 +35 +35 очень
душно
1002.6 934.5
21 22.07 штиль 0 4000 м 6/4 600 м
[Sc As op]
+25.8 +23.2 86 +35 +35 очень
душно
1002.1 934.0
00 23.07 Ю 1 4000 м 3/0
[Ac lent]
+24.6 +22.6 89 +32 +32 очень
душно
1002.2 933.9
03 23.07 штиль 0 4000 м 4/1 750 м
[Sc diur, vesp Ci fib]
+27.0 +23.6 82 +37 +48 очень
душно
1003.2 935.2 +23.6
06 23.07 штиль 0 4000 м 6/6 600 м
[Cu Sc]
+32.4 +25.0 65 +46 +58 опасность
перегрева
1001.0 934.5
09 23.07 штиль 0 4000 м гроза без осадков 6/6 600 м
[Cb cap]
+30.6 +23.0 64 +41 +49 опасность
перегрева
999.3 932.5
12 23.07 штиль 0 4000 м {гроза} 8/4 600 м
[Sc Ci fib]
+31.2 +24.0 66 +43 +44 опасность
перегрева
998.1 931.5 +32.5
15 23.07 штиль 0 4000 м 8/4 600 м
[Sc Ac lent]
+28.8 +23.7 74 +39 +39 очень
душно
1001.3 933.9
18 23.07 штиль 0 4000 м 5/1 600 м
[Sc Ci fib]
+27.4 +24.0 82 +38 +38 очень
душно
1001.5 933.9
21 23.07 штиль 0 4000 м 4/4 600 м
[Sc Ci fib]
+26.8 +24.0 85 +37 +37 очень
душно
1000.4 932.7

 

Местоположение метеостанции Пендра-роуд (Чхаттисгарх, Индия): широта 22.77 долгота 81.90 высота над уровнем моря 625 м.

В архиве по умолчанию представлена погода в Пендра-роуде за последнюю неделю. Архивные данные за месяц целиком и за предыдущие месяцы, начиная с января 2011 года, Вы можете получить, выбрав интересующий диапазон дат из раскрывающегося списка и нажав кнопку "Ввод!".


*Определитесь, кто Вы:
робот инопланетянин человек

Внимание! Время в таблицах - всемирное. Для получения местного времени необходимо прибавить поправку, которая равна 5.5 ч.

Смотрите также архив погоды в соседних городах и на ближайших метеорологических станциях:

Погода в Райпур аэропорту (Чхаттисгарх, Индия) (65 км)
Погода в Биласпуре (Чхаттисгарх, Индия) (80 км)
Погода в Умарии (Мадхья-Прадеш, Индия) (134 км)
Погода в Амбикапуре (Чхаттисгарх, Индия) (145 км)
Погода в Малейнджкханде (Мадхья-Прадеш, Индия) (150 км)
Погода в Мандле (Мадхья-Прадеш, Индия) (158 км)
Погода в Райпуре (Чхаттисгарх, Индия) (173 км)
Погода в Сидхи (Мадхья-Прадеш, Индия) (184 км)
Погода в Дурге (Чхаттисгарх, Индия) (188 км)
Погода в Реве (Мадхья-Прадеш, Индия) (205 км)

Пояснения к столбцам:

Ветер - указаны скорость ветра в м/с - средняя за 10 мин, порывы в срок и между сроками (в фигурных скобках) и направление, откуда дует ветер: С - северный, СВ - северо-восточный, В - восточный, ЮВ - юго-восточный, Ю - южный, ЮЗ - юго-западный, З - западный, СЗ - северо-западный.
Видимость - горизонтальная дальность видимости в метрах или километрах. При видимости от 1 до 10 км при отсутствии осадков обычно наблюдается дымка, при ухудшении видимости до 1 км и менее - туман. В сухую погоду видимость может ухудшаться дымом, пылью или мглою.
Явления - указаны атмосферные явления, наблюдавшиеся в срок или в последний час перед сроком; фигурными скобками обозначены явления, наблюдавшиеся между сроками (за 1-3 часа до срока); квадратными скобками обозначены град или гололедные отложения с указанием их диаметра в мм.
Облачность - указаны через наклонную черту общая и нижняя облачность в баллах и высота нижней границы облаков в метрах; квадратными скобками обозначены формы облаков: Ci - перистые, Cs - перисто-слоистые, Cc - перисто-кучевые, Ac - высококучевые, As - высокослоистые, Sc - слоисто-кучевые, Ns - слоисто-дождевые, Cu - кучевые, Cb - кучево-дождевые. Подробнее классификацию облаков см. в Атласе облаков (PDF).
T - Температура воздуха - температура, измеренная на высоте 2 м над землей.
Td - Температура точки росы - температура, при понижении до которой содержащийся в воздухе водяной пар достигнет насыщения.
f - Относительная влажность воздуха - влажноcть воздуха, измеренная на высоте 2 м над землей.
Te - Эффективная температура - температура, которую ощущает одетый по сезону человек в тени. Характеристика душности погоды. При расчете учитывается влияние влажности воздуха и скорости ветра на теплоощущения человека.
Tes - Эффективная температура на солнце - температура, которую ощущает человек, с поправкой на солнечный нагрев. Характеристика знойности погоды. Зависит от высоты солнца над горизонтом, облачности и скорости ветра. Ночью, в пасмурную погоду, а также при ветре 12 м/с и более поправка равна нулю.
P - Атмосферное давление - приведенное к уровню моря атмосферное давление.
Po - Атмосферное давление - измеренное на уровне метеостанции атмосферное давление.
Tmin - Минимальная температура - минимум температуры воздуха на высоте 2 м над землей.
Tmax - Максимальная температура - максимум температуры воздуха на высоте 2 м над землей.
R - Количество осадков - Количество выпавших осадков за период времени, мм. При наведении курсора мыши на число - период времени, за который выпало указанное количество осадков.
R24 - Количество осадков - Количество выпавших осадков за 24 часа, мм.
S - Снежный покров - Высота снежного покрова, см. При наведении курсора мыши на число - состояние снежного покрова и степень покрытия местности в баллах.